Weather History for KETH - August, 2013

Change the Weather History Date:

Wednesday, August 21, 2013

  Actual Average Record
Temperature  
Mean Temperature 78 °F -  
Max Temperature 87 °F 82 °F 101 °F (1976)
Min Temperature 68 °F 59 °F 37 °F (2004)
Cooling Degree Days 12    
Growing Degree Days 28 (Base 50)    
Moisture  
Dew Point 66 °F    
Average Humidity 70    
Maximum Humidity 100    
Minimum Humidity 46    
Precipitation  
Precipitation 0.00 in - - ()
Sea Level Pressure  
Sea Level Pressure 29.94 in    
Wind  
Wind Speed 6 mph (North)    
Max Wind Speed 10 mph    
Max Gust Speed 16 mph    
Visibility 9 miles    
Events      
Averages and records for this station are not official NWS values.
T = Trace of Precipitation, MM = Missing Value Source: NWS Daily Summary

Daily Weather History Graph

Daily Weather History Graph

Search for Another Location

Airport or City:

Trip Planner

Search our weather history database for the weather conditions in past years. The results will help you decide how hot, cold, wet, or windy it might be!

Date:

Astronomy

Aug. 21, 2013 Rise Set
Actual Time 6:33 AM CDT 8:23 PM CDT
Civil Twilight 6:02 AM CDT 8:55 PM CDT
Nautical Twilight 5:23 AM CDT 9:34 PM CDT
Astronomical Twilight 4:40 AM CDT 10:16 PM CDT
Moon 8:25 PM CDT (8/21) 7:20 AM CDT (8/21)
Length of Visible Light 14h 53m
Length of Day
13h 49m
Waxing Gibbous, 99% of the Moon is Illuminated
Aug 21
Waxing Gibbous
Aug 28
Last Quarter
Sep 5
New
Sep 12
First Quarter
Sep 19
Full

Hourly Weather History & Observations

Time (CDT) Temp. Heat Index Dew Point Humidity Pressure Visibility Wind Dir Wind Speed Gust Speed Precip Events Conditions
12:14 AM 77.0 °F - 73.4 °F 89% 29.80 in 10.0 mi SSE 8.1 mph - N/A   Clear
12:34 AM 77.0 °F - 73.4 °F 89% 29.79 in 10.0 mi SSE 10.4 mph - N/A   Clear
12:54 AM 77.0 °F - 73.4 °F 89% 29.79 in 10.0 mi SSE 9.2 mph - N/A   Clear
1:15 AM 77.0 °F - 73.4 °F 89% 29.80 in 10.0 mi South 6.9 mph - N/A   Clear
1:34 AM 75.2 °F - 73.4 °F 94% 29.81 in 10.0 mi SSE 3.5 mph - N/A   Clear
1:54 AM 75.2 °F - 73.4 °F 94% 29.82 in 10.0 mi Calm Calm - N/A   Clear
2:14 AM 73.4 °F - 71.6 °F 94% 29.81 in 7.0 mi ESE 3.5 mph - N/A   Clear
2:35 AM 73.4 °F - 71.6 °F 94% 29.80 in 5.0 mi ESE 4.6 mph - N/A   Clear
2:54 AM 73.4 °F - 71.6 °F 94% 29.80 in 5.0 mi SE 4.6 mph - N/A   Clear
3:14 AM 73.4 °F - 71.6 °F 94% 29.81 in 5.0 mi Calm Calm - N/A   Clear
3:34 AM 73.4 °F - 71.6 °F 94% 29.82 in 5.0 mi Calm Calm - N/A   Clear
3:54 AM 73.4 °F - 71.6 °F 94% 29.81 in 3.0 mi Calm Calm - N/A   Clear
4:14 AM 71.6 °F - 71.6 °F 100% 29.82 in 4.0 mi Calm Calm - N/A   Clear
4:34 AM 71.6 °F - 71.6 °F 100% 29.82 in 3.0 mi Calm Calm - N/A   Clear
4:54 AM 71.6 °F - 71.6 °F 100% 29.83 in 3.0 mi Calm Calm - N/A   Clear
5:14 AM 71.6 °F - 71.6 °F 100% 29.83 in 3.0 mi Calm Calm - N/A   Scattered Clouds
5:35 AM 71.6 °F - 71.6 °F 100% 29.83 in 4.0 mi Calm Calm - N/A   Clear
5:55 AM 71.6 °F - 71.6 °F 100% 29.83 in 3.0 mi Calm Calm - N/A   Clear
6:14 AM 73.4 °F - 73.4 °F 100% 29.84 in 7.0 mi NNW 6.9 mph 16.1 mph N/A   Clear
6:35 AM 73.4 °F - 71.6 °F 94% 29.85 in 10.0 mi NNW 9.2 mph - N/A   Clear
6:54 AM 71.6 °F - 68.0 °F 88% 29.86 in 10.0 mi NNW 9.2 mph - N/A   Clear
7:15 AM 69.8 °F - 66.2 °F 88% 29.88 in 10.0 mi NW 9.2 mph - N/A   Clear
7:34 AM 68.0 °F - 64.4 °F 88% 29.88 in 10.0 mi NNW 8.1 mph - N/A   Clear
7:55 AM 68.0 °F - 62.6 °F 83% 29.90 in 10.0 mi NNW 9.2 mph - N/A   Clear
8:14 AM 68.0 °F - 62.6 °F 83% 29.91 in 10.0 mi NW 5.8 mph - N/A   Clear
8:34 AM 69.8 °F - 62.6 °F 78% 29.92 in 10.0 mi NW 9.2 mph - N/A   Clear
8:54 AM 69.8 °F - 64.4 °F 83% 29.93 in 10.0 mi NNW 5.8 mph - N/A   Clear
9:14 AM 71.6 °F - 64.4 °F 78% 29.93 in 10.0 mi NNW 10.4 mph - N/A   Clear
9:34 AM 73.4 °F - 64.4 °F 73% 29.93 in 10.0 mi NNW 9.2 mph - N/A   Clear
9:55 AM 73.4 °F - 64.4 °F 73% 29.95 in 10.0 mi North 5.8 mph - N/A   Clear
10:14 AM 75.2 °F - 64.4 °F 69% 29.95 in 10.0 mi NNW 3.5 mph - N/A   Clear
10:34 AM 77.0 °F - 66.2 °F 69% 29.94 in 10.0 mi Calm Calm - N/A   Clear
10:54 AM 78.8 °F - 66.2 °F 65% 29.95 in 10.0 mi NNW 6.9 mph - N/A   Clear
11:14 AM 80.6 °F 82.7 °F 66.2 °F 61% 29.96 in 10.0 mi NNW 8.1 mph - N/A   Clear
11:34 AM 80.6 °F 82.7 °F 66.2 °F 61% 29.96 in 10.0 mi North 8.1 mph - N/A   Clear
11:55 AM 82.4 °F 84.6 °F 66.2 °F 58% 29.97 in 10.0 mi NNW 8.1 mph - N/A   Clear
12:14 PM 82.4 °F 85.4 °F 68.0 °F 62% 29.97 in 10.0 mi NNW 6.9 mph - N/A   Clear
12:35 PM 84.2 °F 87.3 °F 68.0 °F 58% 29.97 in 10.0 mi North 9.2 mph - N/A   Clear
12:54 PM 84.2 °F 87.3 °F 68.0 °F 58% 29.98 in 10.0 mi North 6.9 mph - N/A   Clear
1:14 PM 86.0 °F 88.2 °F 66.2 °F 51% 29.98 in 10.0 mi NNW 8.1 mph - N/A   Clear
1:35 PM 86.0 °F 88.2 °F 66.2 °F 51% 29.98 in 10.0 mi North 8.1 mph - N/A   Clear
1:54 PM 87.8 °F 90.4 °F 66.2 °F 49% 29.99 in 10.0 mi NNW 8.1 mph - N/A   Clear
2:14 PM 87.8 °F 89.4 °F 64.4 °F 46% 29.99 in 10.0 mi North 8.1 mph 16.1 mph N/A   Clear
2:34 PM 87.8 °F 90.4 °F 66.2 °F 49% 29.99 in 10.0 mi NNW 10.4 mph - N/A   Clear
2:54 PM 87.8 °F 90.4 °F 66.2 °F 49% 29.99 in 10.0 mi North 9.2 mph - N/A   Clear
3:14 PM 87.8 °F 89.4 °F 64.4 °F 46% 29.99 in 10.0 mi North 9.2 mph - N/A   Clear
3:35 PM 87.8 °F 90.4 °F 66.2 °F 49% 29.99 in 10.0 mi NNW 9.2 mph - N/A   Clear
3:54 PM 87.8 °F 90.4 °F 66.2 °F 49% 29.99 in 10.0 mi NNW 8.1 mph - N/A   Clear
4:14 PM 87.8 °F 90.4 °F 66.2 °F 49% 29.99 in 10.0 mi North 5.8 mph - N/A   Clear
4:34 PM 87.8 °F 89.4 °F 64.4 °F 46% 29.99 in 10.0 mi North 8.1 mph - N/A   Clear
4:54 PM 87.8 °F 89.4 °F 64.4 °F 46% 29.99 in 10.0 mi North 6.9 mph - N/A   Clear
5:14 PM 87.8 °F 89.4 °F 64.4 °F 46% 30.00 in 10.0 mi NNW 6.9 mph - N/A   Clear
5:35 PM 87.8 °F 89.4 °F 64.4 °F 46% 30.00 in 10.0 mi NNW 8.1 mph - N/A   Clear
5:54 PM 84.2 °F 85.0 °F 62.6 °F 48% 30.00 in 10.0 mi North 8.1 mph - N/A   Clear
6:14 PM 84.2 °F 85.0 °F 62.6 °F 48% 30.00 in 10.0 mi North 9.2 mph - N/A   Clear
6:34 PM 84.2 °F 85.6 °F 64.4 °F 51% 30.00 in 10.0 mi North 8.1 mph - N/A   Clear
6:54 PM 82.4 °F 83.4 °F 62.6 °F 51% 30.00 in 10.0 mi North 8.1 mph - N/A   Clear
7:14 PM 82.4 °F 83.4 °F 62.6 °F 51% 30.01 in 10.0 mi North 8.1 mph - N/A   Clear
7:35 PM 80.6 °F 81.8 °F 62.6 °F 54% 30.02 in 10.0 mi North 5.8 mph - N/A   Clear
7:54 PM 78.8 °F - 60.8 °F 54% 30.02 in 10.0 mi North 5.8 mph - N/A   Clear
8:14 PM 77.0 °F - 60.8 °F 57% 30.03 in 10.0 mi North 4.6 mph - N/A   Clear
8:35 PM 75.2 °F - 60.8 °F 61% 30.03 in 10.0 mi North 4.6 mph - N/A   Clear
8:54 PM 75.2 °F - 60.8 °F 61% 30.04 in 10.0 mi North 5.8 mph - N/A   Clear
9:14 PM 73.4 °F - 60.8 °F 65% 30.04 in 10.0 mi North 6.9 mph - N/A   Clear
9:34 PM 73.4 °F - 59.0 °F 61% 30.05 in 10.0 mi North 4.6 mph - N/A   Clear
9:55 PM 71.6 °F - 59.0 °F 64% 30.05 in 10.0 mi North 4.6 mph - N/A   Clear
10:15 PM 71.6 °F - 59.0 °F 64% 30.05 in 10.0 mi North 5.8 mph - N/A   Clear
10:34 PM 71.6 °F - 57.2 °F 60% 30.06 in 10.0 mi North 6.9 mph - N/A   Clear
10:54 PM 71.6 °F - 57.2 °F 60% 30.06 in 10.0 mi North 6.9 mph - N/A   Clear
11:14 PM 69.8 °F - 57.2 °F 64% 30.06 in 10.0 mi North 3.5 mph - N/A   Clear
11:34 PM 68.0 °F - 59.0 °F 73% 30.06 in 10.0 mi North 5.8 mph - N/A   Clear
11:54 PM 68.0 °F - 57.2 °F 68% 30.08 in 10.0 mi Calm Calm - N/A   Clear